This is the latest recevied weather packets stored in our database for station/object KI4NG. If no packets are shown the sender has not sent any weather packets the latest 10 day(s).
| Time | Temp. | Humidity | Pressure | Rain* | Wind** | Luminosity | Snow |
|---|---|---|---|---|---|---|---|
| 1778013803 | 20° C | 61% | 1012.4 hPa | 0 mm | - | 147 W/m² | - |
| 1778013500 | 20° C | 61% | 1012.4 hPa | 0 mm | - | 139 W/m² | - |
| 1778013197 | 20° C | 61% | 1012.4 hPa | 0 mm | - | 157 W/m² | - |
| 1778012893 | 20° C | 62% | 1012.5 hPa | 0 mm | - | 181 W/m² | - |
| 1778012589 | 20.56° C | 63% | 1012.5 hPa | 0 mm | - | 168 W/m² | - |
| 1778012286 | 21.11° C | 60% | 1012.6 hPa | 0 mm | - | 173 W/m² | - |
| 1778011983 | 21.67° C | 58% | 1012.5 hPa | 0 mm | - | 548 W/m² | - |
| 1778011682 | 21.67° C | 59% | 1012.6 hPa | 0 mm | - | 407 W/m² | - |
| 1778011378 | 21.67° C | 59% | 1012.9 hPa | 0 mm | - | 452 W/m² | - |
| 1778011073 | 20.56° C | 60% | 1013 hPa | 0 mm | - | 801 W/m² | - |
| 1778010771 | 20.56° C | 61% | 1013.1 hPa | 0 mm | - | 319 W/m² | - |
| 1778010468 | 20° C | 63% | 1013.1 hPa | 0 mm | - | 403 W/m² | - |
| 1778010165 | 20° C | 62% | 1013.1 hPa | 0 mm | - | 248 W/m² | - |
| 1778009860 | 20.56° C | 62% | 1013.1 hPa | 0 mm | - | 249 W/m² | - |
| 1778009558 | 20.56° C | 61% | 1013.1 hPa | 0 mm | - | 314 W/m² | - |
| 1778009256 | 21.11° C | 61% | 1013.1 hPa | 0 mm | - | 370 W/m² | - |
| 1778008954 | 21.11° C | 63% | 1013.5 hPa | 0 mm | - | 847 W/m² | - |
| 1778008652 | 21.11° C | 63% | 1013.3 hPa | 0 mm | - | 510 W/m² | - |
| 1778008350 | 21.11° C | 61% | 1013.4 hPa | 0 mm | - | 500 W/m² | - |
| 1778008046 | 20.56° C | 60% | 1013.2 hPa | 0 mm | - | 422 W/m² | - |
| 1778007746 | 21.11° C | 61% | 1013.3 hPa | 0 mm | - | 367 W/m² | - |
| 1778007443 | 21.11° C | 61% | 1013.5 hPa | 0 mm | - | 390 W/m² | - |
| 1778007139 | 20.56° C | 61% | 1013.7 hPa | 0 mm | - | 404 W/m² | - |
| 1778006835 | 20.56° C | 60% | 1013.6 hPa | 0 mm | - | 255 W/m² | - |
| 1778006533 | 21.11° C | 60% | 1013.7 hPa | 0 mm | - | 223 W/m² | - |
* Rain latest hour (hover to see other rain measurements)
** Current wind speed in m/s (hover to see current wind gust speed)